Location: Bois Neuf
(42.7667°N, 0.6333°E)
Time: 21:02:48
(UTC+00:00)

Cosmos 2263 Rocket - Pass Details

Date: 07 June 2020
Orbit: 825 x 847 km, 71.0° (Epoch: 09 July)

Event Time Altitude Azimuth Distance (km) Brightness Sun altitude
Rises 02:47:37 0° 323° (NW) 3,382 5.5 -13.5°
Reaches altitude 10° 02:50:29 10° 310° (NW) 2,440 4.6 -13.2°
Maximum altitude 02:54:49 24° 259° (WSW) 1,669 3.3 -12.6°
Enters shadow 02:57:25 17° 222° (SW) 1,978 3.5 -12.3°
